Météo par heure à Alkatovo

Ce jour, 15 Mai, Samedi

Heure Température Précipitation Vent Pression Humidité
00:00 +10°C° 0 mm 2 m/s 737 mmHg 95%
01:00 +10°C° 0 mm 2 m/s 736 mmHg 96%
02:00 +12°C° 0 mm 2 m/s 736 mmHg 97%
03:00 +12°C° 0.2 mm 2 m/s 735 mmHg 97%
04:00 +12°C° 0.2 mm 2 m/s 735 mmHg 97%
05:00 +12°C° 0.2 mm 2 m/s 735 mmHg 97%
06:00 +13°C° 0.5 mm 2 m/s 735 mmHg 96%
07:00 +14°C° 0.5 mm 2 m/s 734 mmHg 94%
08:00 +14°C° 0 mm 2 m/s 734 mmHg 92%
09:00 +15°C° 0.2 mm 2 m/s 735 mmHg 90%
10:00 +15°C° 0.2 mm 2 m/s 735 mmHg 87%
11:00 +16°C° 0.2 mm 3 m/s 735 mmHg 85%
12:00 +18°C° 0.1 mm 3 m/s 734 mmHg 74%
13:00 +19°C° 0.1 mm 3 m/s 734 mmHg 62%
14:00 +21°C° 0.1 mm 3 m/s 734 mmHg 51%
15:00 +20°C° 0.3 mm 3 m/s 734 mmHg 58%
16:00 +19°C° 0.3 mm 3 m/s 734 mmHg 66%
17:00 +18°C° 0.3 mm 3 m/s 734 mmHg 73%
18:00 +17°C° 0.3 mm 3 m/s 734 mmHg 80%
19:00 +15°C° 0.3 mm 2 m/s 733 mmHg 87%
20:00 +14°C° 0.3 mm 2 m/s 733 mmHg 94%
21:00 +13°C° 0 mm 2 m/s 734 mmHg 95%
22:00 +12°C° 0 mm 2 m/s 734 mmHg 96%
23:00 +12°C° 0 mm 2 m/s 734 mmHg 96%

Demain, 16 Mai, Dimanche

Heure Température Précipitation Vent Pression Humidité
00:00 +12°C° 0 mm 2 m/s 734 mmHg 97%
01:00 +10°C° 0 mm 2 m/s 734 mmHg 97%
02:00 +10°C° 0 mm 2 m/s 734 mmHg 97%
03:00 +10°C° 0 mm 2 m/s 735 mmHg 97%
04:00 +10°C° 0 mm 2 m/s 735 mmHg 96%
05:00 +10°C° 0 mm 2 m/s 735 mmHg 96%
06:00 +13°C° 0 mm 2 m/s 735 mmHg 90%
07:00 +14°C° 0 mm 3 m/s 736 mmHg 84%
08:00 +17°C° 0 mm 3 m/s 736 mmHg 78%
09:00 +18°C° 0.3 mm 3 m/s 736 mmHg 73%
10:00 +19°C° 0.3 mm 3 m/s 736 mmHg 68%
11:00 +20°C° 0.3 mm 3 m/s 737 mmHg 63%
12:00 +20°C° 0.9 mm 3 m/s 737 mmHg 66%
13:00 +20°C° 0.9 mm 3 m/s 737 mmHg 69%
14:00 +19°C° 0.9 mm 3 m/s 737 mmHg 71%
15:00 +19°C° 0.3 mm 2 m/s 738 mmHg 71%
16:00 +19°C° 0.3 mm 2 m/s 738 mmHg 70%
17:00 +20°C° 0.3 mm 1 m/s 738 mmHg 69%
18:00 +19°C° 0.1 mm 1 m/s 738 mmHg 76%
19:00 +16°C° 0.1 mm 1 m/s 738 mmHg 83%
20:00 +14°C° 0.1 mm 1 m/s 739 mmHg 89%
21:00 +14°C° 0 mm 1 m/s 739 mmHg 91%
22:00 +13°C° 0 mm 1 m/s 739 mmHg 92%
23:00 +12°C° 0 mm 1 m/s 739 mmHg 94%

Après-demain, 17 Mai, Lundi

Heure Température Précipitation Vent Pression Humidité
00:00 +12°C° 0 mm 1 m/s 739 mmHg 94%
01:00 +12°C° 0 mm 1 m/s 739 mmHg 94%
02:00 +12°C° 0 mm 1 m/s 739 mmHg 95%
03:00 +12°C° 0 mm 1 m/s 740 mmHg 94%
04:00 +12°C° 0 mm 1 m/s 740 mmHg 94%
05:00 +13°C° 0 mm 1 m/s 740 mmHg 93%
06:00 +14°C° 0 mm 2 m/s 740 mmHg 87%
07:00 +16°C° 0 mm 2 m/s 740 mmHg 81%
08:00 +18°C° 0 mm 3 m/s 740 mmHg 75%
09:00 +19°C° 0 mm 3 m/s 740 mmHg 68%
10:00 +20°C° 0 mm 3 m/s 739 mmHg 61%
11:00 +22°C° 0 mm 4 m/s 739 mmHg 55%
12:00 +22°C° 0 mm 4 m/s 739 mmHg 52%
13:00 +23°C° 0 mm 4 m/s 738 mmHg 50%
14:00 +23°C° 0 mm 4 m/s 738 mmHg 47%
15:00 +23°C° 0 mm 4 m/s 737 mmHg 51%
16:00 +23°C° 0 mm 4 m/s 737 mmHg 55%
17:00 +23°C° 0 mm 4 m/s 736 mmHg 59%
18:00 +21°C° 0.5 mm 4 m/s 736 mmHg 69%
19:00 +20°C° 0.5 mm 4 m/s 736 mmHg 80%
20:00 +18°C° 0.5 mm 4 m/s 735 mmHg 90%
21:00 +18°C° 0.2 mm 3 m/s 735 mmHg 92%
22:00 +17°C° 0.2 mm 3 m/s 735 mmHg 93%
23:00 +17°C° 0.2 mm 3 m/s 735 mmHg 95%

18 Mai, Mardi

Heure Température Précipitation Vent Pression Humidité
00:00 +17°C° 0 mm 3 m/s 734 mmHg 95%
01:00 +17°C° 0 mm 3 m/s 734 mmHg 95%
02:00 +17°C° 0 mm 4 m/s 733 mmHg 95%
03:00 +17°C° 0 mm 3 m/s 733 mmHg 95%
04:00 +17°C° 0 mm 3 m/s 733 mmHg 95%
05:00 +17°C° 0 mm 3 m/s 733 mmHg 95%
06:00 +18°C° 0 mm 3 m/s 733 mmHg 91%
07:00 +19°C° 0 mm 4 m/s 732 mmHg 88%
08:00 +20°C° 0 mm 4 m/s 732 mmHg 84%
09:00 +21°C° 0 mm 4 m/s 732 mmHg 77%
10:00 +22°C° 0 mm 5 m/s 732 mmHg 70%
11:00 +25°C° 0 mm 5 m/s 732 mmHg 63%
12:00 +25°C° 0.4 mm 5 m/s 732 mmHg 65%
13:00 +25°C° 0.4 mm 5 m/s 732 mmHg 67%
14:00 +25°C° 0.4 mm 5 m/s 731 mmHg 68%
15:00 +23°C° 1 mm 5 m/s 731 mmHg 73%
16:00 +22°C° 1 mm 5 m/s 731 mmHg 78%
17:00 +21°C° 1 mm 5 m/s 730 mmHg 83%
18:00 +20°C° 1 mm 5 m/s 730 mmHg 84%
19:00 +19°C° 1 mm 5 m/s 730 mmHg 85%
20:00 +17°C° 1 mm 5 m/s 730 mmHg 87%
21:00 +16°C° 0.1 mm 5 m/s 730 mmHg 89%
22:00 +15°C° 0.1 mm 5 m/s 730 mmHg 91%
23:00 +15°C° 0.1 mm 5 m/s 730 mmHg 94%

19 Mai, Mercredi

Heure Température Précipitation Vent Pression Humidité
00:00 +14°C° 0.1 mm 4 m/s 730 mmHg 94%
01:00 +14°C° 0.1 mm 4 m/s 730 mmHg 93%
02:00 +14°C° 0.1 mm 4 m/s 731 mmHg 93%
03:00 +14°C° 0 mm 4 m/s 731 mmHg 94%
04:00 +14°C° 0 mm 3 m/s 731 mmHg 94%
05:00 +13°C° 0 mm 3 m/s 731 mmHg 94%
06:00 +14°C° 0.5 mm 2 m/s 731 mmHg 95%
07:00 +14°C° 0.5 mm 2 m/s 731 mmHg 95%
08:00 +14°C° 0.5 mm 1 m/s 731 mmHg 96%
09:00 +15°C° 0.6 mm 1 m/s 731 mmHg 95%
10:00 +15°C° 0.6 mm 1 m/s 730 mmHg 94%
11:00 +16°C° 0.6 mm 2 m/s 730 mmHg 93%
12:00 +16°C° 0.9 mm 2 m/s 729 mmHg 92%
13:00 +17°C° 0.9 mm 2 m/s 729 mmHg 91%
14:00 +17°C° 0.9 mm 2 m/s 728 mmHg 90%
15:00 +16°C° 3 mm 2 m/s 727 mmHg 92%
16:00 +16°C° 3 mm 3 m/s 726 mmHg 94%
17:00 +14°C° 3 mm 4 m/s 725 mmHg 95%
18:00 +13°C° 5.3 mm 4 m/s 725 mmHg 96%
19:00 +12°C° 5.3 mm 5 m/s 725 mmHg 96%
20:00 +11°C° 5.3 mm 6 m/s 725 mmHg 96%
21:00 +10°C° 2.9 mm 6 m/s 725 mmHg 96%
22:00 +10°C° 2.9 mm 7 m/s 726 mmHg 95%
23:00 +9°C° 2.9 mm 7 m/s 726 mmHg 95%

20 Mai, Jeudi

Heure Température Précipitation Vent Pression Humidité
00:00 +9°C° 2.3 mm 7 m/s 727 mmHg 95%
01:00 +8°C° 2.3 mm 7 m/s 728 mmHg 95%
02:00 +8°C° 2.3 mm 6 m/s 729 mmHg 95%
03:00 +7°C° 0.2 mm 6 m/s 729 mmHg 95%
04:00 +7°C° 0.2 mm 6 m/s 730 mmHg 95%
05:00 +5°C° 0.2 mm 6 m/s 730 mmHg 95%
06:00 +5°C° 0.2 mm 6 m/s 731 mmHg 95%
07:00 +5°C° 0.2 mm 6 m/s 732 mmHg 95%
08:00 +5°C° 0.2 mm 6 m/s 733 mmHg 95%
09:00 +7°C° 0.1 mm 6 m/s 733 mmHg 93%
10:00 +7°C° 0.1 mm 6 m/s 734 mmHg 91%
11:00 +8°C° 0.1 mm 6 m/s 735 mmHg 89%
12:00 +9°C° 0.1 mm 6 m/s 735 mmHg 84%
13:00 +10°C° 0.1 mm 6 m/s 736 mmHg 78%
14:00 +12°C° 0.1 mm 5 m/s 736 mmHg 73%
15:00 +13°C° 0.1 mm 5 m/s 737 mmHg 68%
16:00 +13°C° 0.1 mm 5 m/s 737 mmHg 63%
17:00 +14°C° 0.1 mm 5 m/s 737 mmHg 59%
18:00 +13°C° 0 mm 4 m/s 737 mmHg 64%
19:00 +11°C° 0 mm 4 m/s 738 mmHg 70%
20:00 +10°C° 0 mm 3 m/s 738 mmHg 75%
21:00 +9°C° 0 mm 3 m/s 738 mmHg 80%
22:00 +8°C° 0 mm 3 m/s 739 mmHg 84%
23:00 +8°C° 0 mm 3 m/s 739 mmHg 89%
Voir plus

Nous avons besoin de votre consentement

Meteoprog et ses fournisseurs de services peuvent stocker et accéder à des données personnelles telles que des cookies, des identifiants d'appareils ou d'autres technologies similaires sur votre appareil et traiter ces données pour personnaliser le contenu et les publicités, ainsi que pour fournir des fonctionnalités de médias sociaux et analyser le trafic.

  • Stocker et/ou accéder à des informations sur votre appareil

    Des cookies, des identifiants d'appareils ou d'autres informations peuvent être stockés ou accessibles sur votre appareil aux fins indiquées ci-dessus.

  • Annonces et contenus personnalisés, mesure des annonces et des contenus, connaissance de l'audience et développement de produits

    Les annonces et le contenu peuvent être personnalisés en fonction d'un profil. D'autres données peuvent être ajoutées pour mieux personnaliser les annonces et le contenu. Les performances des publicités et du contenu peuvent être mesurées. Il est possible d'obtenir des informations sur le public qui a vu les publicités et le contenu. Ces données peuvent être utilisées pour développer ou améliorer l'expérience de l'utilisateur, les systèmes et les logiciels.

En cliquant sur "J'accepte", vous autorisez l'utilisation de cookies, des identifiants d'appareils, des balises web ou d'autres technologies similaires. Vos paramètres peuvent être modifiés dans le navigateur de votre appareil.

Dans certains cas, des intérêts légitimes peuvent être invoqués plutôt qu'un consentement. Vous pouvez en savoir plus à ce sujet dans notre Politique de confidentialité et de cookies.